Location: Bannatyne
(13.0833°N, 59.5333°W)
Time: 02:09:22
(UTC+00:00)

Vanguard 3 - Pass Details

Date: 25 January 2020
Orbit: 508 x 3263 km, 33.3° (Epoch: 19 February)

Event Time Altitude Azimuth Distance (km) Brightness Sun altitude
Rises 06:24:56 0° 284° (WNW) 4,387 - -57.2°
Reaches altitude 10° 06:29:32 10° 266° (W) 2,872 - -56.1°
Maximum altitude 06:33:37 17° 228° (SW) 1,974 - -55.1°
Drops below altitude 10° 06:36:46 10° 186° (S) 2,115 - -54.4°
Sets 06:39:29 0° 164° (SSE) 2,806 - -53.7°
